Hourly Weather Nakuru

Today, 8 July, Wednesday

Time Temperature Precipitation Wind Pressure Humidity
00:00 +15°C° 0 mm 1 mps 604 mmHg 90%
01:00 +14°C° 0 mm 1 mps 604 mmHg 91%
02:00 +14°C° 0 mm 1 mps 603 mmHg 91%
03:00 +14°C° 0 mm 1 mps 603 mmHg 92%
04:00 +13°C° 0 mm 2 mps 603 mmHg 92%
05:00 +13°C° 0 mm 2 mps 604 mmHg 92%
06:00 +15°C° 0 mm 2 mps 604 mmHg 89%
07:00 +16°C° 0 mm 2 mps 605 mmHg 86%
08:00 +17°C° 0 mm 3 mps 606 mmHg 83%
09:00 +19°C° 0.4 mm 3 mps 607 mmHg 79%
10:00 +20°C° 0.4 mm 3 mps 607 mmHg 74%
11:00 +22°C° 0.4 mm 3 mps 607 mmHg 70%
12:00 +21°C° 1.5 mm 3 mps 607 mmHg 72%
13:00 +21°C° 1.5 mm 3 mps 606 mmHg 74%
14:00 +21°C° 1.5 mm 3 mps 605 mmHg 76%
15:00 +20°C° 1.1 mm 3 mps 605 mmHg 78%
16:00 +19°C° 1.1 mm 3 mps 605 mmHg 81%
17:00 +18°C° 1.1 mm 3 mps 605 mmHg 84%
18:00 +17°C° 0.1 mm 3 mps 605 mmHg 86%
19:00 +16°C° 0.1 mm 2 mps 604 mmHg 88%
20:00 +15°C° 0.1 mm 2 mps 604 mmHg 89%
21:00 +15°C° 0 mm 2 mps 604 mmHg 89%
22:00 +14°C° 0 mm 3 mps 604 mmHg 88%
23:00 +13°C° 0 mm 3 mps 604 mmHg 87%

Tomorrow, 9 July, Thursday

Time Temperature Precipitation Wind Pressure Humidity
00:00 +13°C° 0 mm 3 mps 604 mmHg 87%
01:00 +13°C° 0 mm 3 mps 604 mmHg 86%
02:00 +13°C° 0 mm 3 mps 603 mmHg 86%
03:00 +13°C° 0 mm 2 mps 603 mmHg 86%
04:00 +13°C° 0 mm 2 mps 603 mmHg 87%
05:00 +13°C° 0 mm 2 mps 603 mmHg 87%
06:00 +13°C° 0 mm 3 mps 604 mmHg 83%
07:00 +16°C° 0 mm 3 mps 605 mmHg 79%
08:00 +17°C° 0 mm 3 mps 606 mmHg 74%
09:00 +19°C° 0 mm 3 mps 606 mmHg 69%
10:00 +21°C° 0 mm 4 mps 607 mmHg 64%
11:00 +22°C° 0 mm 4 mps 607 mmHg 59%
12:00 +22°C° 0.3 mm 4 mps 607 mmHg 60%
13:00 +22°C° 0.3 mm 4 mps 606 mmHg 61%
14:00 +23°C° 0.3 mm 4 mps 605 mmHg 61%
15:00 +22°C° 0.4 mm 4 mps 605 mmHg 67%
16:00 +20°C° 0.4 mm 3 mps 604 mmHg 73%
17:00 +19°C° 0.4 mm 3 mps 604 mmHg 79%
18:00 +18°C° 0.1 mm 3 mps 604 mmHg 82%
19:00 +17°C° 0.1 mm 3 mps 604 mmHg 85%
20:00 +14°C° 0.1 mm 3 mps 604 mmHg 87%
21:00 +14°C° 0 mm 3 mps 604 mmHg 88%
22:00 +14°C° 0 mm 3 mps 604 mmHg 89%
23:00 +13°C° 0 mm 3 mps 604 mmHg 90%

Day after tomorrow, 10 July, Friday

Time Temperature Precipitation Wind Pressure Humidity
00:00 +14°C° 0 mm 2 mps 604 mmHg 90%
01:00 +14°C° 0 mm 2 mps 603 mmHg 89%
02:00 +14°C° 0 mm 2 mps 603 mmHg 89%
03:00 +14°C° 0 mm 2 mps 603 mmHg 90%
04:00 +12°C° 0 mm 3 mps 603 mmHg 91%
05:00 +12°C° 0 mm 3 mps 603 mmHg 91%
06:00 +14°C° 0 mm 3 mps 604 mmHg 87%
07:00 +17°C° 0 mm 3 mps 605 mmHg 84%
08:00 +18°C° 0 mm 3 mps 606 mmHg 80%
09:00 +20°C° 0 mm 3 mps 606 mmHg 74%
10:00 +21°C° 0 mm 3 mps 607 mmHg 68%
11:00 +24°C° 0 mm 3 mps 607 mmHg 62%
12:00 +22°C° 0.6 mm 3 mps 606 mmHg 65%
13:00 +22°C° 0.6 mm 3 mps 605 mmHg 68%
14:00 +22°C° 0.6 mm 4 mps 605 mmHg 71%
15:00 +21°C° 0.8 mm 4 mps 604 mmHg 75%
16:00 +20°C° 0.8 mm 3 mps 604 mmHg 79%
17:00 +18°C° 0.8 mm 3 mps 604 mmHg 83%
18:00 +17°C° 0.3 mm 3 mps 604 mmHg 85%
19:00 +16°C° 0.3 mm 2 mps 604 mmHg 86%
20:00 +15°C° 0.3 mm 2 mps 604 mmHg 88%
21:00 +15°C° 0 mm 2 mps 604 mmHg 88%
22:00 +15°C° 0 mm 2 mps 604 mmHg 88%
23:00 +14°C° 0 mm 2 mps 604 mmHg 89%

11 July, Saturday

Time Temperature Precipitation Wind Pressure Humidity
00:00 +14°C° 0 mm 2 mps 604 mmHg 89%
01:00 +14°C° 0 mm 2 mps 604 mmHg 88%
02:00 +14°C° 0 mm 2 mps 603 mmHg 88%
03:00 +14°C° 0 mm 2 mps 603 mmHg 88%
04:00 +14°C° 0 mm 2 mps 603 mmHg 89%
05:00 +13°C° 0 mm 2 mps 603 mmHg 89%
06:00 +15°C° 0 mm 2 mps 604 mmHg 86%
07:00 +16°C° 0 mm 2 mps 605 mmHg 82%
08:00 +19°C° 0 mm 1 mps 606 mmHg 78%
09:00 +20°C° 0.1 mm 1 mps 606 mmHg 74%
10:00 +21°C° 0.1 mm 1 mps 606 mmHg 70%
11:00 +23°C° 0.1 mm 1 mps 607 mmHg 66%
12:00 +23°C° 1.2 mm 1 mps 606 mmHg 69%
13:00 +23°C° 1.2 mm 2 mps 606 mmHg 71%
14:00 +23°C° 1.2 mm 2 mps 605 mmHg 74%
15:00 +21°C° 1.6 mm 2 mps 605 mmHg 79%
16:00 +19°C° 1.6 mm 2 mps 604 mmHg 84%
17:00 +18°C° 1.6 mm 2 mps 604 mmHg 88%
18:00 +19°C° 1 mm 1 mps 604 mmHg 89%
19:00 +18°C° 1 mm 1 mps 605 mmHg 90%
20:00 +16°C° 1 mm 1 mps 605 mmHg 91%
21:00 +16°C° 0.1 mm 1 mps 605 mmHg 90%
22:00 +16°C° 0.1 mm 1 mps 605 mmHg 90%
23:00 +15°C° 0.1 mm 0 mps 605 mmHg 89%

12 July, Sunday

Time Temperature Precipitation Wind Pressure Humidity
00:00 +15°C° 0 mm 1 mps 604 mmHg 90%
01:00 +15°C° 0 mm 1 mps 604 mmHg 90%
02:00 +14°C° 0 mm 2 mps 603 mmHg 91%
03:00 +14°C° 0 mm 2 mps 603 mmHg 90%
04:00 +14°C° 0 mm 2 mps 603 mmHg 89%
05:00 +14°C° 0 mm 2 mps 603 mmHg 88%
06:00 +15°C° 0 mm 2 mps 604 mmHg 85%
07:00 +16°C° 0 mm 2 mps 605 mmHg 81%
08:00 +18°C° 0 mm 2 mps 606 mmHg 78%
09:00 +19°C° 0.3 mm 2 mps 607 mmHg 74%
10:00 +21°C° 0.3 mm 2 mps 607 mmHg 71%
11:00 +23°C° 0.3 mm 1 mps 607 mmHg 67%
12:00 +23°C° 1.3 mm 1 mps 607 mmHg 69%
13:00 +23°C° 1.3 mm 1 mps 606 mmHg 70%
14:00 +23°C° 1.3 mm 1 mps 605 mmHg 72%
15:00 +22°C° 1.4 mm 1 mps 605 mmHg 76%
16:00 +21°C° 1.4 mm 1 mps 605 mmHg 81%
17:00 +20°C° 1.4 mm 1 mps 604 mmHg 86%
18:00 +19°C° 0.6 mm 1 mps 604 mmHg 88%
19:00 +18°C° 0.6 mm 1 mps 604 mmHg 89%
20:00 +16°C° 0.6 mm 1 mps 604 mmHg 90%
21:00 +16°C° 0.3 mm 1 mps 604 mmHg 91%
22:00 +16°C° 0.3 mm 1 mps 604 mmHg 91%
23:00 +16°C° 0.3 mm 1 mps 604 mmHg 91%

13 July, Monday

Time Temperature Precipitation Wind Pressure Humidity
00:00 +16°C° 0.2 mm 1 mps 604 mmHg 91%
01:00 +15°C° 0.2 mm 1 mps 604 mmHg 92%
02:00 +15°C° 0.2 mm 2 mps 603 mmHg 92%
03:00 +15°C° 0.1 mm 2 mps 603 mmHg 92%
04:00 +15°C° 0.1 mm 2 mps 604 mmHg 92%
05:00 +15°C° 0.1 mm 2 mps 604 mmHg 92%
06:00 +16°C° 0 mm 2 mps 605 mmHg 90%
07:00 +17°C° 0 mm 2 mps 605 mmHg 87%
08:00 +18°C° 0 mm 2 mps 606 mmHg 85%
09:00 +19°C° 0.4 mm 2 mps 606 mmHg 81%
10:00 +20°C° 0.4 mm 2 mps 606 mmHg 77%
11:00 +21°C° 0.4 mm 3 mps 606 mmHg 74%
12:00 +21°C° 1.1 mm 2 mps 606 mmHg 74%
13:00 +21°C° 1.1 mm 2 mps 605 mmHg 74%
14:00 +23°C° 1.1 mm 2 mps 605 mmHg 74%
15:00 +20°C° 1.9 mm 2 mps 604 mmHg 79%
16:00 +19°C° 1.9 mm 2 mps 604 mmHg 83%
17:00 +18°C° 1.9 mm 2 mps 603 mmHg 88%
18:00 +17°C° 1.5 mm 2 mps 603 mmHg 90%
19:00 +16°C° 1.5 mm 2 mps 604 mmHg 92%
20:00 +16°C° 1.5 mm 2 mps 604 mmHg 94%
21:00 +15°C° 1.2 mm 1 mps 604 mmHg 94%
22:00 +15°C° 1.2 mm 1 mps 604 mmHg 94%
23:00 +15°C° 1.2 mm 1 mps 604 mmHg 94%
Show more